[[{"header":{"parameterUnit":"m.s-1","parameterCategory":1,"la1":30.2991,"la2":30.254,"lo1":-89.0895,"lo2":-89.0444,"dy":0.0017,"dx":0.0017,"nx":28,"ny":28,"refTime":"2025-09-12T03:00:00:Z","depth":0,"parameterNumber":2,"parameterNumberName":"U-component_of_WINDS"},"data":[0,0,0,0,0,0,0,0,0,0,0,0,0,0,0,0,0,0,0,0,0,0,0,0,0,0,0,0,0,0,0,0,0,0,0,0,0,0,0,0,0,0,0,0,0,0,0,0,0,0,0,0,0,0,0,0,0,0,-2.0212,-2.0211,0,-2.0127,-2.0126,-2.0125,-2.0014,-2.0013,-2.0011,-2.0009,-1.9924,-1.9924,-1.9923,0,0,0,0,0,0,0,0,0,0,0,0,0,-2.0285,-2.0284,-2.0212,-2.0211,-2.021,-2.0127,-2.0126,-2.0125,-2.0015,-2.0012,-2.001,-2.0008,-1.9924,-1.9924,-1.9923,0,0,0,0,0,0,0,0,0,0,0,0,0,-2.0232,-2.0284,-2.0213,-2.0145,-2.0138,-2.0127,-2.0126,-2.0124,-2.0015,-2.0012,-2.001,-2.0007,-1.9925,-1.9924,-1.9923,-1.9972,0,0,-1.992,-1.992,0,0,0,0,0,0,0,0,-2.0235,-2.0229,-2.0156,-2.015,-2.0142,-2.0078,-2.012,-2.0073,-2.0016,-2.0062,-2.0009,-2.0006,-1.9978,-1.9972,-1.9962,-1.9968,-1.9964,-1.992,-1.992,-1.9919,-1.9919,0,0,0,0,0,0,0,-2.0239,-2.0233,-2.0179,-2.0155,-2.0147,-2.0121,-2.011,-2.0111,-2.0036,-2.0058,-2.005,-2.0041,-1.9974,-1.9964,-1.996,-1.9963,-1.992,-1.9919,-1.9919,-1.9919,-2.0008,-2.0011,0,0,0,0,0,0,-2.0252,-2.0236,-2.0181,-2.0176,-2.0183,-2.0122,-2.011,-2.0102,-2.0036,-2.0023,-2.0043,-2.0036,-1.9966,-1.9961,-1.9956,-2.0011,-1.9919,-1.9919,-1.9918,-2.0005,-2.0009,-2.0012,0,0,0,0,0,0,-2.0254,-2.0248,-2.0185,-2.0204,-2.0194,-2.0123,-2.0115,-2.0101,-2.0091,-2.0025,-2.0011,-2.0046,-1.9964,-1.9958,-1.9969,-2.0007,-1.9918,-1.9917,-2.0002,-2.0007,-2.0011,-2.0121,0,0,0,0,0,0,-2.0257,-2.025,-2.0266,-2.0205,-2.0193,-2.0198,-2.0117,-2.0102,-2.009,-2.008,-2.0024,-2.0013,-1.9961,-1.9971,-1.9969,-2.0004,-1.9917,-1.9998,-2.0004,-2.0009,-2.0114,-2.0129,-2.0142,0,0,0,0,0,-2.026,-2.03,-2.0267,-2.0261,-2.0212,-2.02,-2.0194,-2.0133,-2.0093,-2.011,-2.0068,-2.0014,-2.0003,-1.9974,-1.997,-2.0005,-1.9996,-2.0002,-2.0009,-2.0108,-2.0126,-2.0141,0,0,0,0,0,0,-2.0367,-2.0291,-2.0254,-2.0276,-2.0246,-2.0182,-2.0201,-2.0154,-2.0135,-2.0126,-2.0053,-2.0041,-2.0063,-2.0035,-2.0003,-2.0051,-1.9992,-1.9998,-2.0068,-2.0085,-2.0099,-2.0105,-1.9916,0,0,0,0,0,-2.0394,-2.039,-2.0323,-2.0349,-2.0336,-2.0272,-2.0264,-2.0221,-2.0187,-2.0174,-2.0132,-2.0102,-2.0092,-2.0087,-2.0074,-2.011,-2.0098,-2.0133,-2.0147,-2.0158,-2.0164,-2.0184,-2.02,-2.0034,-2.0033,-2.0033,0,0,-2.0448,-2.0406,-2.0408,-2.037,-2.0341,-2.0341,-2.0262,-2.0263,-2.0262,-2.0174,-2.0183,-2.0152,-2.0114,-2.0139,-2.0148,-2.0117,-2.0208,-2.0166,-2.0176,-2.0176,-2.0193,-2.0209,-2.0223,-2.0038,-2.0037,-2.0036,0,0,-2.0547,-2.0514,-2.0533,-2.0507,-2.0465,-2.0422,-2.0427,-2.0371,-2.0347,-2.0355,-2.029,-2.0289,-2.0272,-2.0249,-2.0235,-2.033,-2.028,-2.0327,-2.04,-2.042,-2.0433,-2.0444,-2.048,-2.0494,-2.0334,-2.0334,-2.0334,0,-2.062,-2.0614,-2.0549,-2.0555,-2.0542,-2.0463,-2.0483,-2.0461,-2.0417,-2.0411,-2.0376,-2.0356,-2.0325,-2.0345,-2.0368,-2.0359,-2.0364,-2.0333,-2.0436,-2.0447,-2.0457,-2.049,-2.0503,-2.034,-2.0339,-2.0339,-2.0338,0,-2.0708,-2.0705,-2.0726,-2.0687,-2.0676,-2.0689,-2.0628,-2.0625,-2.0584,-2.0546,-2.0557,-2.0517,-2.0496,-2.0497,-2.0456,-2.0513,-2.0495,-2.045,-2.0388,-2.048,-2.051,-2.0522,-2.0349,-2.0347,-2.0345,-2.0343,0,0,-2.0869,-2.0796,-2.0805,-2.0787,-2.0737,-2.0734,-2.0746,-2.0725,-2.0726,-2.0699,-2.0709,-2.0698,-2.0657,-2.0642,-2.0598,-2.0616,-2.0696,-2.0568,-2.0566,-2.0595,-2.0759,-2.0794,-2.081,-2.0663,-2.0666,-2.0667,-2.0763,0,-2.0959,-2.0973,-2.0917,-2.0947,-2.0945,-2.0872,-2.0882,-2.0854,-2.082,-2.0815,-2.0778,-2.0772,-2.0717,-2.0708,-2.0722,-2.0683,-2.0728,-2.0676,-2.0673,-2.0674,-2.0686,-2.0825,-2.0861,-2.0953,-2.0774,-2.0776,-2.0777,0,-2.1065,-2.1046,-2.1076,-2.1027,-2.1024,-2.1034,-2.1013,-2.1009,-2.0976,-2.095,-2.0935,-2.0885,-2.0895,-2.0838,-2.0852,-2.0818,-2.0814,-2.0795,-2.0797,-2.0795,-2.0731,-2.0828,-2.098,-2.0995,-2.0795,-2.0793,-2.0792,0,-2.1183,-2.1164,-2.118,-2.1167,-2.111,-2.112,-2.1097,-2.1061,-2.1054,-2.1035,-2.103,-2.1014,-2.1005,-2.0995,-2.0942,-2.0905,-2.0965,-2.0901,-2.0945,-2.0947,-2.0961,-2.0961,-2.1116,-2.0957,-2.0957,-2.0957,-2.0957,0,-2.129,-2.1311,-2.1232,-2.1242,-2.1266,-2.1202,-2.1227,-2.1197,-2.1167,-2.1172,-2.1107,-2.1113,-2.1043,-2.1043,-2.1002,-2.1022,-2.1018,-2.0999,-2.0988,-2.1005,-2.1008,-2.1002,-2.0995,-2.096,-2.096,-2.0959,-2.0958,0,-2.1424,-2.1372,-2.1385,-2.1331,-2.1318,-2.1338,-2.1292,-2.1301,-2.1264,-2.1271,-2.1269,-2.1211,-2.1207,-2.1154,-2.1138,-2.1111,-2.1148,-2.1125,-2.1159,-2.1152,-2.1199,-2.1196,-2.1357,-2.1376,-2.1204,-2.1206,-2.1207,0,-2.1496,-2.1511,-2.146,-2.1458,-2.1438,-2.1436,-2.1428,-2.1367,-2.1362,-2.1329,-2.1342,-2.1333,-2.1322,-2.132,-2.1278,-2.1266,-2.1243,-2.13,-2.1241,-2.1259,-2.1246,-2.1246,-2.1248,-2.1313,-2.1315,-2.1317,-2.1318,0,-2.163,-2.1604,-2.1595,-2.1578,-2.1571,-2.1555,-2.1535,-2.1538,-2.1471,-2.147,-2.1465,-2.1457,-2.1442,-2.1435,-2.1416,-2.1394,-2.1347,-2.1338,-2.1347,-2.1365,-2.1385,-2.1377,-2.1195,-2.1334,-2.1332,-2.1331,-2.133,-2.133,-2.1736,-2.1747,-2.1713,-2.1707,-2.1686,-2.1669,-2.1675,-2.164,-2.1635,-2.1617,-2.1582,-2.1584,-2.1555,-2.1525,-2.1508,-2.151,-2.1481,-2.1494,-2.1498,-2.1503,-2.1513,-2.1385,-2.1506,-2.1506,-2.1505,-2.1505,-2.1504,0,-2.1867,-2.1843,-2.1837,-2.1812,-2.1808,-2.1763,-2.174,-2.174,-2.1742,-2.1718,-2.171,-2.1706,-2.17,-2.1658,-2.1648,-2.1657,-2.1636,-2.1657,-2.1656,-2.1652,-2.1538,-2.1532,-2.1675,-2.1675,-2.1675,-2.1675,-2.1675,-2.1675,-2.1935,-2.1953,-2.1924,-2.1932,-2.1907,-2.1908,-2.1899,-2.1885,-2.1866,-2.1865,-2.1859,-2.1832,-2.1803,-2.179,-2.1783,-2.1771,-2.1771,-2.18,-2.1782,-2.1676,-2.166,-2.1644,-2.1637,-2.1801,-2.1801,-2.1895,-2.1896,-2.1897]},{"header":{"parameterUnit":"m.s-1","parameterCategory":1,"la1":30.2991,"la2":30.254,"lo1":-89.0895,"lo2":-89.0444,"dy":0.0017,"dx":0.0017,"nx":28,"ny":28,"refTime":"2025-09-12T03:00:00:Z","depth":0,"parameterNumber":3,"parameterNumberName":"V-component_of_WINDS"},"data":[0,0,0,0,0,0,0,0,0,0,0,0,0,0,0,0,0,0,0,0,0,0,0,0,0,0,0,0,0,0,0,0,0,0,0,0,0,0,0,0,0,0,0,0,0,0,0,0,0,0,0,0,0,0,0,0,0,0,2.0172,2.0173,0,2.0263,2.0264,2.0265,2.0345,2.0346,2.0347,2.0348,2.0437,2.0438,2.044,0,0,0,0,0,0,0,0,0,0,0,0,0,2.0063,2.0064,2.0172,2.0173,2.0174,2.0263,2.0264,2.0266,2.0345,2.0346,2.0347,2.0348,2.0436,2.0438,2.044,0,0,0,0,0,0,0,0,0,0,0,0,0,2.0127,2.0065,2.0172,2.0224,2.023,2.0263,2.0264,2.0266,2.0345,2.0346,2.0347,2.0349,2.0436,2.0438,2.044,2.0426,0,0,2.0447,2.0448,0,0,0,0,0,0,0,0,2.0124,2.0131,2.0215,2.0221,2.0227,2.0294,2.0259,2.032,2.0344,2.0301,2.0348,2.0349,2.0388,2.0394,2.0408,2.0431,2.0434,2.0447,2.0449,2.045,2.045,0,0,0,0,0,0,0,2.0119,2.0128,2.0208,2.0217,2.0224,2.0243,2.0253,2.0271,2.0335,2.0305,2.0311,2.0321,2.0391,2.0406,2.0411,2.0436,2.0447,2.0449,2.0451,2.0451,2.0452,2.045,0,0,0,0,0,0,2.0107,2.0123,2.0205,2.0211,2.0178,2.0243,2.0255,2.0271,2.0335,2.0347,2.0319,2.0324,2.0401,2.0408,2.0414,2.0402,2.045,2.0452,2.0453,2.0453,2.0451,2.045,0,0,0,0,0,0,2.0104,2.0113,2.0201,2.0169,2.0181,2.0244,2.0261,2.0272,2.0287,2.0347,2.0358,2.0322,2.0403,2.0411,2.0423,2.0406,2.0453,2.0455,2.0455,2.0452,2.0451,2.0377,0,0,0,0,0,0,2.0101,2.0112,2.0108,2.0168,2.0183,2.0209,2.026,2.0273,2.0291,2.0298,2.0353,2.0363,2.0404,2.0419,2.0425,2.041,2.0457,2.0456,2.0454,2.0451,2.0382,2.0373,2.0366,0,0,0,0,0,2.0097,2.0083,2.0107,2.0117,2.018,2.0208,2.0217,2.0266,2.0289,2.0285,2.0324,2.0361,2.0408,2.042,2.0427,2.0412,2.0458,2.0454,2.0451,2.0385,2.0375,2.0366,0,0,0,0,0,0,2.0017,2.0092,2.012,2.0125,2.016,2.0222,2.0218,2.0253,2.0281,2.0286,2.0345,2.0356,2.0362,2.0389,2.0401,2.0403,2.0438,2.0436,2.0384,2.0375,2.0368,2.036,2.0458,0,0,0,0,0,2.0001,2.0019,2.0083,2.0082,2.0098,2.0155,2.0169,2.0204,2.0242,2.0257,2.0296,2.033,2.0353,2.0366,2.039,2.0387,2.0399,2.038,2.0373,2.0366,2.0363,2.0363,2.0355,2.044,2.044,2.044,0,0,1.9966,2.0009,2.0017,2.0067,2.0098,2.0114,2.0166,2.0182,2.0194,2.0259,2.0272,2.0303,2.0345,2.0349,2.0353,2.0372,2.0343,2.0362,2.0356,2.0357,2.0359,2.035,2.0343,2.0438,2.0438,2.0438,0,0,1.9911,1.9946,1.9949,1.9979,2.0026,2.0065,2.0065,2.0122,2.0145,2.0161,2.0209,2.0225,2.0262,2.029,2.0309,2.0266,2.03,2.0272,2.023,2.0229,2.0222,2.0217,2.02,2.0193,2.027,2.0269,2.0269,0,1.9861,1.9889,1.9945,1.9958,1.9978,2.0039,2.0042,2.0068,2.012,2.0132,2.0153,2.0202,2.0234,2.0246,2.0235,2.0249,2.0251,2.0265,2.0219,2.0214,2.021,2.0194,2.0188,2.0265,2.0266,2.0266,2.0267,0,1.9826,1.9844,1.9841,1.989,1.9911,1.9918,1.9973,1.9987,2.0021,2.0057,2.0071,2.0113,2.0146,2.0152,2.0185,2.0168,2.0178,2.0209,2.0244,2.0197,2.0183,2.0178,2.026,2.0261,2.0262,2.0263,0,0,1.972,1.9803,1.98,1.9824,1.9881,1.9896,1.9906,1.994,1.995,1.9984,1.9993,2.0024,2.0053,2.0074,2.0111,2.011,2.0072,2.0141,2.0143,2.0125,2.0055,2.003,2.0023,2.0097,2.0096,2.0095,2.0051,0,1.9673,1.9696,1.9747,1.9753,1.977,1.983,1.9839,1.9874,1.9908,1.9927,1.9964,1.9985,2.0022,2.0035,2.0038,2.0076,2.0059,2.0081,2.0104,2.0104,2.0089,2.0016,1.999,1.9946,2.0046,2.0045,2.0045,0,1.9621,1.9652,1.966,1.9717,1.9726,1.9733,1.9769,1.9787,1.9828,1.9853,1.9878,1.9919,1.9932,1.9966,1.9984,1.9998,2.0011,2.0031,2.0031,2.0033,2.0069,2.0014,1.9933,1.9925,2.0037,2.0038,2.0038,0,1.9541,1.9586,1.9597,1.9615,1.9682,1.9685,1.9713,1.9756,1.9773,1.9805,1.9816,1.9848,1.9864,1.9887,1.9936,1.9957,1.9947,1.9986,1.9967,1.9965,1.996,1.9959,1.9877,1.9972,1.9972,1.9972,1.9972,0,1.9481,1.9483,1.9562,1.9568,1.9572,1.9631,1.9633,1.9666,1.9704,1.9717,1.9771,1.9781,1.9846,1.9863,1.9901,1.9909,1.9917,1.9936,1.9946,1.993,1.9927,1.9937,1.9941,1.997,1.997,1.9971,1.9971,0,1.9392,1.9445,1.946,1.9523,1.9539,1.9539,1.9592,1.96,1.9638,1.9654,1.9661,1.972,1.9744,1.9795,1.9833,1.9858,1.9856,1.9875,1.9842,1.9848,1.9825,1.9825,1.9745,1.9737,1.9838,1.9837,1.9836,0,1.9349,1.9352,1.9416,1.9429,1.9455,1.9476,1.9495,1.9553,1.957,1.9618,1.962,1.9648,1.9674,1.9709,1.9755,1.9784,1.9802,1.9772,1.9807,1.9791,1.98,1.9798,1.9798,1.9763,1.9762,1.9761,1.976,0,1.9267,1.9294,1.9319,1.9353,1.9374,1.9404,1.9437,1.9444,1.951,1.9526,1.9553,1.9573,1.9612,1.9639,1.9675,1.9703,1.9741,1.975,1.9746,1.9729,1.9709,1.9717,1.9819,1.975,1.9751,1.9752,1.9752,1.9753,1.9198,1.9204,1.925,1.9276,1.9307,1.9337,1.9347,1.9388,1.9411,1.9448,1.9482,1.9504,1.9546,1.9599,1.9624,1.9642,1.9661,1.9657,1.9655,1.9652,1.9645,1.9708,1.9649,1.9649,1.9649,1.965,1.965,0,1.9117,1.9151,1.9175,1.9219,1.924,1.9278,1.9316,1.933,1.935,1.9386,1.9411,1.9441,1.9468,1.9516,1.9547,1.9552,1.9571,1.9558,1.9557,1.9562,1.9627,1.9626,1.9542,1.9542,1.9542,1.9542,1.9542,1.9542,1.9078,1.9089,1.912,1.9147,1.9181,1.9204,1.9222,1.9249,1.9279,1.931,1.9333,1.9366,1.9407,1.9442,1.9468,1.9482,1.9489,1.947,1.9489,1.9548,1.9558,1.9567,1.9567,1.9472,1.9472,1.9423,1.9423,1.9422]}]]